Find Globalstar M008

NORAD ID: 25309 Int'l Des: 1998-023 Owner: GLOBT Country: US Constellation: globalstar operational
LEOCIRCULAR

Live Position

Loading 3D Globe...

About Globalstar M008

Description loading...

Upcoming Passes

Passes for default location (London). Set your location on the main map for personalized predictions.

Altitude History

Loading altitude history...

Two-Line Element Set

1 25309U 98023D 26106.57530837 -.00000083 00000-0 10500-3 0 9995
2 25309 51.9991 38.4393 0003198 88.9858 81.5053 12.36082928275368
Epoch: Apr 16, 2026 • Age: 21 hours

Current Status

Altitude 1524.2 km
Velocity 7.11 km/s
Sub-Earth Point 37.13°N, 170.18°E
Launch Date Apr 24, 1998
Age 27.9 years
Type communications

Technical Details

Classification Payload
Mass 450.00 kg
Dry Mass 380.00 kg
Total Mass 450.00 kg
Length 1.50 m
Diameter 0.60 m
Span 12.00 m
Shape Box + 2 Pan
Manufacturer LOR
Bus Type LS-400
Phase Status In Orbit
Owner/State GLOBT/US

Most Searched